Location: Sungai Bunut
(2.6333°N, 113.7333°E)
Time: 18:19:48
(UTC+00:00)

S-56A Canister/Altair - Pass Details

Date: 06 December 2023
Orbit: 640 x 2488 km, 38.9° (Epoch: 20 February)

Event Time Altitude Azimuth Distance (km) Brightness Sun altitude
Rises 13:27:20 0° 281° (WNW) 4,471 11.9 -44.6°
Reaches altitude 10° 13:30:29 10° 271° (W) 3,756 11.5 -45.2°
Maximum altitude 13:39:02 30° 214° (SSW) 3,064 10.8 -47.1°
Drops below altitude 10° 13:50:15 10° 159° (SSE) 4,946 11.7 -49.5°
Sets 13:55:16 0° 149° (SSE) 6,096 12.1 -50.5°
